Jackson, KY

5:59 PM EST on November 13, 2019 (GMT -0500)
Carroll

Weather History for KJKL - September, 2019

Change the Weather History Date:

Thursday, September 12, 2019

  Actual Average Record
Temperature  
Mean Temperature 83 °F 70 °F  
Max Temperature 95 °F 79 °F 95 °F (2019)
Min Temperature 70 °F 60 °F 50 °F (1992)
Degree Days  
Heating Degree Days 0 1  
Month to date heating degree days 0 4  
Since 1 July heating degree days 0 6  
Cooling Degree Days 18 5  
Month to date cooling degree days 142 80  
Year to date cooling degree days 1279 1058  
Growing Degree Days 32 (Base 50)    
Moisture  
Dew Point 67 °F    
Average Humidity 0    
Maximum Humidity 0    
Minimum Humidity 0    
Precipitation  
Precipitation 0.00 in 0.12 in 1.18 in (1986)
Month to date precipitation 0.00 1.32  
Year to date precipitation 39.46 34.87  
Snow  
Snow 0.00 in 0.00 in - ()
Month to date snowfall 0.0 0.0  
Since 1 July snowfall 0.0 0.0  
Since 1 September snowfall 0.0 0.0  
Snow Depth 0.00 in    
Sea Level Pressure  
Sea Level Pressure 30.13 in    
Wind  
Wind Speed 1 mph (NW)    
Max Wind Speed 8 mph    
Max Gust Speed 14 mph    
Visibility 10 miles    
Events      
T = Trace of Precipitation, MM = Missing Value Source: NWS Daily Summary

Daily Weather History Graph

Daily Weather History Graph

Search for Another Location

Airport or City:

Astronomy

Sep. 12, 2019 Rise Set
Actual Time 7:12 AM EDT 7:46 PM EDT
Civil Twilight 6:46 AM EDT 8:12 PM EDT
Nautical Twilight 6:15 AM EDT 8:43 PM EDT
Astronomical Twilight 5:43 AM EDT 9:15 PM EDT
Moon 7:27 PM EDT (9/12) 5:34 AM EDT (9/12)
Length of Visible Light 13h 26m
Length of Day
12h 33m
Waxing Gibbous, 98% of the Moon is Illuminated
Sep 12
Waxing Gibbous
Sep 14
Full
Sep 21
Last Quarter
Sep 28
New
Oct 5
First Quarter

Hourly Weather History & Observations

Time (EDT) Temp. Heat Index Dew Point Humidity Pressure Visibility Wind Dir Wind Speed Gust Speed Precip Events Conditions
12:53 AM 75.9 °F - 69.1 °F 79% 30.13 in 10.0 mi Calm Calm - N/A   Clear
1:53 AM 75.9 °F - 69.1 °F 79% 30.12 in 10.0 mi SW 3.5 mph - N/A   Clear
2:53 AM 73.9 °F - 69.1 °F 85% 30.12 in 10.0 mi Calm Calm - N/A   Clear
3:53 AM 72.0 °F - 69.1 °F 91% 30.12 in 10.0 mi Calm Calm - N/A   Clear
4:53 AM 72.0 °F - 69.1 °F 91% 30.12 in 10.0 mi Calm Calm - N/A   Clear
5:53 AM 71.1 °F - 69.1 °F 93% 30.13 in 10.0 mi Calm Calm - N/A   Clear
6:53 AM 71.1 °F - 69.1 °F 93% 30.16 in 10.0 mi Calm Calm - N/A   Clear
7:53 AM 70.0 °F - 69.1 °F 97% 30.19 in 9.0 mi Calm Calm - N/A   Clear
8:53 AM 73.9 °F - 70.0 °F 87% 30.19 in 10.0 mi Calm Calm - N/A   Clear
9:53 AM 75.9 °F - 70.0 °F 82% 30.19 in 10.0 mi Calm Calm - N/A   Clear
10:53 AM 82.9 °F 87.0 °F 70.0 °F 65% 30.18 in 10.0 mi Variable 3.5 mph - N/A   Clear
11:53 AM 86.0 °F 89.4 °F 68.0 °F 55% 30.17 in 10.0 mi Calm Calm - N/A   Clear
12:53 PM 88.0 °F 90.7 °F 66.9 °F 49% 30.15 in 10.0 mi Calm Calm - N/A   Clear
1:53 PM 91.0 °F 93.0 °F 64.9 °F 42% 30.14 in 10.0 mi Variable 3.5 mph - N/A   Clear
2:53 PM 93.0 °F 94.6 °F 64.0 °F 38% 30.11 in 10.0 mi Variable 5.8 mph - N/A   Mostly Cloudy
3:53 PM 90.0 °F 91.3 °F 64.0 °F 42% 30.10 in 10.0 mi NNW 4.6 mph - N/A   Mostly Cloudy
4:53 PM 90.0 °F 91.3 °F 64.0 °F 42% 30.10 in 10.0 mi Variable 3.5 mph - N/A   Partly Cloudy
5:53 PM 91.0 °F 92.6 °F 64.0 °F 41% 30.09 in 10.0 mi Variable 3.5 mph - N/A   Clear
6:53 PM 89.1 °F 90.3 °F 64.0 °F 43% 30.09 in 10.0 mi NNW 3.5 mph - N/A   Clear
7:53 PM 84.0 °F 85.8 °F 64.9 °F 53% 30.10 in 10.0 mi Calm Calm - N/A   Clear
9:53 PM 82.0 °F 84.5 °F 66.9 °F 60% 30.12 in 10.0 mi Calm Calm - N/A   Clear
10:53 PM 80.1 °F 82.3 °F 66.9 °F 64% 30.12 in 10.0 mi Calm Calm - N/A   Clear
11:53 PM 79.0 °F - 66.9 °F 66% 30.12 in 10.0 mi Calm Calm - N/A   Clear